When you browse on this site, cookies collect data to enhance your experience and personalize the content and advertising you see.
Visit our Privacy Policy to learn more. By continuing to use the site, you agree to this use of cookies and data.
  • In Romania
  • List of Countries
  • For 7 days
  • Water Temperature
  • Weather Map
  • Weather Widgets
  • user-avatar
    Login

    Hourly Weather Lampeter

    Today, 10 December, Tuesday

    Time Temperature Precipitation Wind Pressure Humidity
    00:00 +1°C° 0 mm 4 mps 755 mmHg 86%
    01:00 +2°C° 0 mm 5 mps 754 mmHg 86%
    02:00 +3°C° 0 mm 6 mps 752 mmHg 86%
    03:00 +4°C° 0 mm 7 mps 751 mmHg 86%
    04:00 +5°C° 0.1 mm 7 mps 749 mmHg 85%
    05:00 +5°C° 0.1 mm 8 mps 747 mmHg 85%
    06:00 +6°C° 0.1 mm 9 mps 746 mmHg 85%
    07:00 +6°C° 1.3 mm 10 mps 744 mmHg 85%
    08:00 +6°C° 1.3 mm 10 mps 742 mmHg 86%
    09:00 +7°C° 1.3 mm 11 mps 741 mmHg 86%
    10:00 +8°C° 2.3 mm 11 mps 739 mmHg 87%
    11:00 +8°C° 2.3 mm 11 mps 737 mmHg 87%
    12:00 +9°C° 2.3 mm 11 mps 735 mmHg 87%
    13:00 +9°C° 1.8 mm 11 mps 734 mmHg 87%
    14:00 +9°C° 1.8 mm 11 mps 732 mmHg 87%
    15:00 +9°C° 1.8 mm 12 mps 731 mmHg 87%
    16:00 +7°C° 1.5 mm 11 mps 732 mmHg 86%
    17:00 +6°C° 1.5 mm 10 mps 733 mmHg 85%
    18:00 +3°C° 1.5 mm 9 mps 734 mmHg 84%
    19:00 +2°C° 0.1 mm 9 mps 735 mmHg 81%
    20:00 +2°C° 0.1 mm 8 mps 736 mmHg 77%
    21:00 +2°C° 0.1 mm 8 mps 737 mmHg 74%
    22:00 +2°C° 0 mm 8 mps 738 mmHg 73%
    23:00 +1°C° 0 mm 8 mps 738 mmHg 72%

    Tomorrow, 11 December, Wednesday

    Time Temperature Precipitation Wind Pressure Humidity
    00:00 +2°C° 0 mm 7 mps 739 mmHg 71%
    01:00 +1°C° 0 mm 8 mps 739 mmHg 74%
    02:00 +1°C° 0 mm 8 mps 739 mmHg 77%
    03:00 +1°C° 0 mm 9 mps 739 mmHg 80%
    04:00 +1°C° 0 mm 9 mps 739 mmHg 80%
    05:00 +1°C° 0 mm 9 mps 739 mmHg 81%
    06:00 +1°C° 0 mm 10 mps 739 mmHg 81%
    07:00 +1°C° 0.1 mm 9 mps 739 mmHg 80%
    08:00 +1°C° 0.1 mm 8 mps 739 mmHg 79%
    09:00 +1°C° 0.1 mm 8 mps 739 mmHg 78%
    10:00 +1°C° 0 mm 8 mps 739 mmHg 77%
    11:00 +1°C° 0 mm 8 mps 739 mmHg 75%
    12:00 +2°C° 0 mm 8 mps 739 mmHg 73%
    13:00 +2°C° 0 mm 7 mps 739 mmHg 74%
    14:00 +2°C° 0 mm 7 mps 739 mmHg 75%
    15:00 +2°C° 0 mm 6 mps 739 mmHg 76%
    16:00 +2°C° 0 mm 6 mps 739 mmHg 77%
    17:00 +1°C° 0 mm 6 mps 739 mmHg 79%
    18:00 +1°C° 0 mm 5 mps 740 mmHg 80%
    19:00 +1°C° 0 mm 5 mps 740 mmHg 79%
    20:00 +1°C° 0 mm 5 mps 740 mmHg 79%
    21:00 +1°C° 0 mm 5 mps 741 mmHg 78%
    22:00 +1°C° 0.1 mm 6 mps 740 mmHg 82%
    23:00 +1°C° 0.1 mm 6 mps 740 mmHg 85%

    Day after tomorrow, 12 December, Thursday

    Time Temperature Precipitation Wind Pressure Humidity
    00:00 +1°C° 0.1 mm 6 mps 740 mmHg 89%
    01:00 -1°C° 0 mm 6 mps 740 mmHg 89%
    02:00 -1°C° 0 mm 6 mps 739 mmHg 88%
    03:00 -1°C° 0 mm 6 mps 739 mmHg 88%
    04:00 0°C° 0 mm 5 mps 738 mmHg 86%
    05:00 0°C° 0 mm 5 mps 738 mmHg 85%
    06:00 0°C° 0 mm 5 mps 737 mmHg 83%
    07:00 0°C° 0 mm 5 mps 736 mmHg 85%
    08:00 0°C° 0 mm 4 mps 735 mmHg 86%
    09:00 0°C° 0 mm 4 mps 733 mmHg 88%
    10:00 +1°C° 0 mm 4 mps 732 mmHg 87%
    11:00 +1°C° 0 mm 5 mps 730 mmHg 86%
    12:00 +2°C° 0 mm 6 mps 728 mmHg 85%
    13:00 +2°C° 0.3 mm 6 mps 726 mmHg 87%
    14:00 +2°C° 0.3 mm 6 mps 723 mmHg 89%
    15:00 +3°C° 0.3 mm 6 mps 721 mmHg 91%
    16:00 +3°C° 0.6 mm 5 mps 719 mmHg 92%
    17:00 +3°C° 0.6 mm 5 mps 717 mmHg 93%
    18:00 +4°C° 0.6 mm 4 mps 716 mmHg 94%
    19:00 +4°C° 1.1 mm 3 mps 715 mmHg 95%
    20:00 +5°C° 1.1 mm 2 mps 714 mmHg 96%
    21:00 +6°C° 1.1 mm 1 mps 713 mmHg 97%
    22:00 +5°C° 0.3 mm 2 mps 713 mmHg 97%
    23:00 +4°C° 0.3 mm 3 mps 712 mmHg 97%

    13 December, Friday

    Time Temperature Precipitation Wind Pressure Humidity
    00:00 +4°C° 0.3 mm 3 mps 712 mmHg 97%
    01:00 +4°C° 0.3 mm 4 mps 712 mmHg 95%
    02:00 +3°C° 0.3 mm 5 mps 712 mmHg 93%
    03:00 +3°C° 0.3 mm 6 mps 712 mmHg 91%
    04:00 +3°C° 0.2 mm 7 mps 712 mmHg 90%
    05:00 +3°C° 0.2 mm 7 mps 713 mmHg 88%
    06:00 +2°C° 0.2 mm 8 mps 713 mmHg 87%
    07:00 +3°C° 0.6 mm 7 mps 714 mmHg 88%
    08:00 +3°C° 0.6 mm 6 mps 715 mmHg 89%
    09:00 +3°C° 0.6 mm 6 mps 715 mmHg 90%
    10:00 +3°C° 0.6 mm 6 mps 716 mmHg 89%
    11:00 +4°C° 0.6 mm 6 mps 717 mmHg 88%
    12:00 +4°C° 0.6 mm 6 mps 717 mmHg 87%
    13:00 +4°C° 1 mm 6 mps 718 mmHg 88%
    14:00 +5°C° 1 mm 5 mps 719 mmHg 88%
    15:00 +3°C° 1 mm 5 mps 719 mmHg 89%
    16:00 +3°C° 0.8 mm 5 mps 720 mmHg 90%
    17:00 +3°C° 0.8 mm 6 mps 720 mmHg 90%
    18:00 +3°C° 0.8 mm 6 mps 721 mmHg 91%
    19:00 +3°C° 0.4 mm 6 mps 721 mmHg 90%
    20:00 +3°C° 0.4 mm 6 mps 721 mmHg 88%
    21:00 +3°C° 0.4 mm 7 mps 722 mmHg 87%
    22:00 +3°C° 0.1 mm 7 mps 722 mmHg 85%
    23:00 +1°C° 0.1 mm 8 mps 722 mmHg 84%

    14 December, Saturday

    Time Temperature Precipitation Wind Pressure Humidity
    00:00 +1°C° 0.1 mm 8 mps 722 mmHg 82%
    01:00 +1°C° 0 mm 8 mps 723 mmHg 81%
    02:00 +2°C° 0 mm 7 mps 723 mmHg 80%
    03:00 0°C° 0 mm 7 mps 723 mmHg 79%
    04:00 +1°C° 0 mm 6 mps 723 mmHg 79%
    05:00 +1°C° 0 mm 6 mps 723 mmHg 80%
    06:00 +1°C° 0 mm 6 mps 724 mmHg 80%
    07:00 +1°C° 0 mm 5 mps 724 mmHg 82%
    08:00 0°C° 0 mm 5 mps 725 mmHg 83%
    09:00 0°C° 0 mm 5 mps 725 mmHg 84%
    10:00 +1°C° 0.1 mm 5 mps 725 mmHg 85%
    11:00 +1°C° 0.1 mm 6 mps 726 mmHg 86%
    12:00 0°C° 0.1 mm 7 mps 726 mmHg 86%
    13:00 0°C° 0 mm 7 mps 726 mmHg 83%
    14:00 +1°C° 0 mm 6 mps 726 mmHg 80%
    15:00 +1°C° 0 mm 6 mps 727 mmHg 77%
    16:00 +1°C° 0 mm 6 mps 727 mmHg 78%
    17:00 -1°C° 0 mm 6 mps 727 mmHg 80%
    18:00 -1°C° 0 mm 6 mps 727 mmHg 81%
    19:00 -1°C° 0 mm 6 mps 728 mmHg 82%
    20:00 -2°C° 0 mm 6 mps 728 mmHg 84%
    21:00 -2°C° 0 mm 6 mps 728 mmHg 85%
    22:00 -2°C° 0.5 mm 6 mps 728 mmHg 88%
    23:00 -2°C° 0.5 mm 6 mps 729 mmHg 91%

    15 December, Sunday

    Time Temperature Precipitation Wind Pressure Humidity
    00:00 -1°C° 0.5 mm 6 mps 729 mmHg 94%
    01:00 -1°C° 0.1 mm 6 mps 729 mmHg 90%
    02:00 -1°C° 0.1 mm 6 mps 730 mmHg 86%
    03:00 -1°C° 0.1 mm 6 mps 730 mmHg 82%
    04:00 -2°C° 0 mm 6 mps 730 mmHg 81%
    05:00 -2°C° 0 mm 6 mps 731 mmHg 79%
    06:00 -3°C° 0 mm 6 mps 731 mmHg 77%
    07:00 -2°C° 0 mm 5 mps 732 mmHg 77%
    08:00 -2°C° 0 mm 5 mps 733 mmHg 76%
    09:00 -2°C° 0 mm 4 mps 733 mmHg 75%
    10:00 -1°C° 0 mm 4 mps 733 mmHg 77%
    11:00 -1°C° 0 mm 4 mps 734 mmHg 78%
    12:00 +1°C° 0 mm 3 mps 734 mmHg 80%
    13:00 +1°C° 0 mm 3 mps 734 mmHg 81%
    14:00 +2°C° 0 mm 2 mps 734 mmHg 83%
    15:00 +2°C° 0 mm 2 mps 734 mmHg 85%
    16:00 +1°C° 0 mm 2 mps 734 mmHg 86%
    17:00 +1°C° 0 mm 2 mps 734 mmHg 87%
    18:00 0°C° 0 mm 3 mps 734 mmHg 88%
    19:00 0°C° 0.2 mm 3 mps 734 mmHg 89%
    20:00 +1°C° 0.2 mm 3 mps 734 mmHg 91%
    21:00 +1°C° 0.2 mm 3 mps 734 mmHg 93%
    22:00 +1°C° 0 mm 3 mps 733 mmHg 93%
    23:00 +1°C° 0 mm 3 mps 733 mmHg 93%
    Show more